�������l�o���
Date,Time,MP-1(��Sv/h),MP-2(��Sv/h),MP-3(��Sv/h),MP-4(��Sv/h),MP-5(��Sv/h),MP-6(��Sv/h),MP-7(��Sv/h),MP-8(��Sv/h),����,����(m/s),���J
2020/09/08,00:00,0.679,0.961,0.615,1.180,0.850,0.389,0.680,0.636,��,7.9,��
2020/09/08,00:10,0.677,0.964,0.615,1.178,0.851,0.390,0.681,0.637,��,8.1,��
2020/09/08,00:20,0.680,0.963,0.615,1.179,0.851,0.389,0.680,0.637,��,8.1,��
2020/09/08,00:30,0.677,0.964,0.614,1.179,0.850,0.387,0.679,0.637,��,8.5,��
2020/09/08,00:40,0.679,0.961,0.616,1.181,0.850,0.389,0.680,0.637,��,8.3,��
2020/09/08,00:50,0.680,0.960,0.615,1.179,0.851,0.389,0.678,0.637,��,9.3,��
2020/09/08,01:00,0.677,0.961,0.616,1.182,0.852,0.389,0.680,0.639,��,9.2,��
2020/09/08,01:10,0.678,0.964,0.617,1.179,0.851,0.388,0.679,0.637,��,8.3,��
2020/09/08,01:20,0.677,0.965,0.615,1.181,0.851,0.389,0.679,0.638,��,9.2,��
2020/09/08,01:30,0.678,0.963,0.614,1.179,0.853,0.389,0.680,0.636,��,8.9,��
2020/09/08,01:40,0.677,0.963,0.614,1.180,0.851,0.389,0.680,0.638,��,9.5,��
2020/09/08,01:50,0.678,0.964,0.616,1.182,0.852,0.388,0.681,0.638,��,6.8,��
2020/09/08,02:00,0.677,0.965,0.616,1.180,0.851,0.389,0.682,0.636,��쐼,7.3,��
2020/09/08,02:10,0.678,0.964,0.614,1.182,0.849,0.389,0.678,0.639,��쐼,5.8,��
2020/09/08,02:20,0.677,0.963,0.615,1.183,0.851,0.389,0.681,0.638,��,5.0,��
2020/09/08,02:30,0.678,0.964,0.614,1.178,0.850,0.389,0.680,0.639,��,4.0,��
2020/09/08,02:40,0.677,0.963,0.614,1.181,0.851,0.388,0.680,0.637,��쐼,4.2,��
2020/09/08,02:50,0.677,0.963,0.615,1.178,0.851,0.389,0.680,0.636,��쐼,3.9,��
2020/09/08,03:00,0.676,0.962,0.614,1.180,0.852,0.390,0.679,0.638,��,2.8,��
2020/09/08,03:10,0.677,0.963,0.616,1.184,0.851,0.391,0.680,0.638,��,3.7,��
2020/09/08,03:20,0.677,0.962,0.614,1.181,0.852,0.388,0.680,0.637,��쓌,3.4,��
2020/09/08,03:30,0.678,0.963,0.616,1.183,0.854,0.389,0.680,0.637,��,4.0,��
2020/09/08,03:40,0.677,0.964,0.615,1.179,0.852,0.388,0.679,0.636,��쓌,4.9,��
2020/09/08,03:50,0.677,0.963,0.615,1.183,0.850,0.389,0.678,0.636,��,5.9,��
2020/09/08,04:00,0.677,0.963,0.615,1.181,0.851,0.389,0.679,0.637,��,6.0,��
2020/09/08,04:10,0.677,0.964,0.616,1.182,0.851,0.389,0.681,0.638,��,6.5,��
2020/09/08,04:20,0.678,0.962,0.616,1.181,0.850,0.389,0.680,0.638,��,6.6,�L
2020/09/08,04:30,0.677,0.963,0.617,1.180,0.850,0.387,0.681,0.637,��,6.7,�L
2020/09/08,04:40,0.676,0.961,0.614,1.181,0.851,0.389,0.681,0.639,��,6.6,�L
2020/09/08,04:50,0.677,0.962,0.615,1.181,0.850,0.389,0.678,0.639,��,6.8,�L
2020/09/08,05:00,0.676,0.964,0.615,1.180,0.851,0.389,0.679,0.637,��,6.7,��
2020/09/08,05:10,0.676,0.963,0.615,1.182,0.852,0.389,0.679,0.638,��,6.9,��
2020/09/08,05:20,0.677,0.961,0.614,1.180,0.852,0.389,0.679,0.638,��,5.8,��
2020/09/08,05:30,0.678,0.962,0.615,1.184,0.852,0.388,0.680,0.639,��,4.5,�L
2020/09/08,05:40,0.678,0.965,0.614,1.181,0.852,0.388,0.680,0.638,��,4.6,�L
2020/09/08,05:50,0.678,0.963,0.617,1.182,0.852,0.389,0.679,0.639,��,5.7,��
2020/09/08,06:00,0.678,0.964,0.614,1.181,0.851,0.388,0.678,0.637,��,6.5,��
2020/09/08,06:10,0.678,0.966,0.615,1.182,0.850,0.388,0.680,0.638,��,7.3,��
2020/09/08,06:20,0.678,0.963,0.614,1.181,0.852,0.388,0.680,0.637,��,7.3,��
2020/09/08,06:30,0.678,0.965,0.615,1.182,0.852,0.388,0.680,0.638,��,6.7,��
2020/09/08,06:40,0.677,0.964,0.614,1.183,0.852,0.388,0.679,0.638,��,6.5,��
2020/09/08,06:50,0.679,0.965,0.614,1.181,0.851,0.388,0.679,0.640,��,6.0,��
2020/09/08,07:00,0.680,0.964,0.614,1.183,0.850,0.388,0.679,0.638,��,6.1,��
2020/09/08,07:10,0.677,0.965,0.614,1.180,0.852,0.389,0.680,0.639,��,6.2,��
2020/09/08,07:20,0.677,0.963,0.614,1.182,0.852,0.389,0.679,0.638,��,6.0,��
2020/09/08,07:30,0.681,0.964,0.616,1.182,0.852,0.388,0.680,0.637,��,6.5,��
2020/09/08,07:40,0.679,0.963,0.615,1.182,0.851,0.390,0.679,0.638,��,5.8,��
2020/09/08,07:50,0.679,0.963,0.616,1.183,0.852,0.388,0.680,0.636,��,6.2,��
2020/09/08,08:00,0.679,0.961,0.613,1.181,0.851,0.389,0.680,0.638,��,6.0,��
2020/09/08,08:10,0.677,0.963,0.613,1.183,0.851,0.388,0.681,0.637,��,4.7,��
2020/09/08,08:20,0.679,0.962,0.612,1.182,0.851,0.389,0.681,0.638,��,4.9,��
2020/09/08,08:30,0.680,0.963,0.612,1.182,0.850,0.388,0.681,0.637,��쐼,3.9,��
2020/09/08,08:40,0.679,0.961,0.616,1.183,0.849,0.389,0.680,0.637,��쐼,3.9,��
2020/09/08,08:50,0.679,0.963,0.614,1.184,0.851,0.389,0.682,0.635,��쐼,3.5,��
2020/09/08,09:00,0.679,0.960,0.615,1.184,0.850,0.390,0.680,0.635,��쐼,3.5,��
2020/09/08,09:10,0.680,0.961,0.614,1.183,0.850,0.389,0.680,0.635,��쐼,4.2,��
2020/09/08,09:20,0.680,0.957,0.613,1.182,0.850,0.389,0.679,0.636,��,4.5,��
2020/09/08,09:30,0.681,0.958,0.614,1.181,0.851,0.389,0.680,0.637,��쐼,4.0,��
2020/09/08,09:40,0.680,0.960,0.615,1.182,0.852,0.388,0.678,0.635,��쐼,5.0,��
2020/09/08,09:50,0.681,0.957,0.616,1.186,0.853,0.389,0.679,0.637,��,5.5,��
2020/09/08,10:00,0.682,0.959,0.618,1.183,0.854,0.389,0.680,0.637,��,5.1,��
2020/09/08,10:10,0.682,0.960,0.616,1.184,0.856,0.390,0.678,0.636,��,4.2,��
2020/09/08,10:20,0.679,0.962,0.617,1.184,0.858,0.389,0.680,0.637,��,4.0,��
2020/09/08,10:30,0.681,0.964,0.619,1.184,0.856,0.389,0.681,0.638,��,4.9,��
2020/09/08,10:40,0.680,0.963,0.619,1.185,0.858,0.391,0.681,0.636,��,5.3,��
2020/09/08,10:50,0.681,0.964,0.620,1.186,0.856,0.391,0.681,0.636,��,5.9,��
2020/09/08,11:00,0.682,0.962,0.619,1.186,0.858,0.389,0.682,0.636,��쓌,6.3,��
2020/09/08,11:10,0.681,0.964,0.619,1.186,0.858,0.389,0.682,0.637,��쓌,6.7,��
2020/09/08,11:20,0.683,0.965,0.617,1.187,0.858,0.392,0.682,0.638,��,6.6,��
2020/09/08,11:30,0.682,0.963,0.620,1.185,0.859,0.391,0.682,0.638,��,5.7,��
2020/09/08,11:40,0.685,0.964,0.620,1.187,0.859,0.391,0.681,0.639,��,5.1,��
2020/09/08,11:50,0.683,0.965,0.621,1.189,0.860,0.392,0.682,0.639,��,4.7,��
2020/09/08,12:00,0.683,0.969,0.619,1.188,0.861,0.391,0.682,0.637,��,4.9,��
2020/09/08,12:10,0.683,0.971,0.619,1.186,0.860,0.393,0.680,0.637,��쓌,4.9,��
2020/09/08,12:20,0.683,0.969,0.618,1.189,0.861,0.391,0.680,0.637,��,5.8,��
2020/09/08,12:30,0.685,0.971,0.620,1.188,0.864,0.392,0.682,0.637,��쓌,5.7,��
2020/09/08,12:40,0.684,0.971,0.620,1.189,0.862,0.391,0.684,0.638,��,5.3,��
2020/09/08,12:50,0.685,0.971,0.622,1.189,0.865,0.392,0.683,0.638,��,6.9,��
2020/09/08,13:00,0.684,0.965,0.619,1.188,0.863,0.392,0.685,0.639,��,7.2,��
2020/09/08,13:10,0.685,0.966,0.621,1.191,0.861,0.391,0.684,0.639,��,7.6,��
2020/09/08,13:20,0.684,0.965,0.622,1.192,0.861,0.394,0.683,0.639,��,7.7,��
2020/09/08,13:30,0.684,0.963,0.622,1.188,0.862,0.392,0.683,0.641,��,7.6,��
2020/09/08,13:40,0.685,0.965,0.622,1.190,0.863,0.391,0.686,0.639,��,7.5,��
2020/09/08,13:50,0.686,0.967,0.622,1.189,0.863,0.392,0.687,0.640,��,7.0,��
2020/09/08,14:00,0.683,0.969,0.622,1.190,0.864,0.391,0.686,0.641,��,7.0,��
2020/09/08,14:10,0.683,0.968,0.623,1.191,0.863,0.391,0.685,0.640,��,6.2,��
2020/09/08,14:20,0.683,0.966,0.624,1.191,0.864,0.392,0.685,0.641,��,5.8,��
2020/09/08,14:30,0.684,0.966,0.622,1.190,0.863,0.393,0.685,0.642,��,6.9,��
2020/09/08,14:40,0.685,0.968,0.624,1.194,0.866,0.393,0.687,0.640,��,6.8,��
2020/09/08,14:50,0.685,0.970,0.625,1.191,0.864,0.392,0.686,0.640,��,6.8,��
2020/09/08,15:00,0.686,0.968,0.624,1.194,0.862,0.393,0.683,0.639,��,6.1,��
2020/09/08,15:10,0.688,0.969,0.624,1.189,0.864,0.393,0.684,0.640,��,6.1,��
2020/09/08,15:20,0.686,0.971,0.624,1.190,0.865,0.392,0.685,0.640,��,5.5,��
2020/09/08,15:30,0.685,0.974,0.623,1.190,0.867,0.392,0.684,0.641,��,5.2,��
2020/09/08,15:40,0.685,0.971,0.624,1.191,0.865,0.392,0.684,0.639,��,5.5,��
2020/09/08,15:50,0.685,0.972,0.623,1.188,0.866,0.392,0.683,0.638,��,5.8,��
2020/09/08,16:00,0.686,0.973,0.624,1.192,0.867,0.392,0.684,0.638,��,6.5,��
2020/09/08,16:10,0.685,0.976,0.623,1.191,0.867,0.392,0.683,0.639,��,6.5,��
2020/09/08,16:20,0.687,0.971,0.624,1.193,0.865,0.393,0.683,0.639,��,7.1,��
2020/09/08,16:30,0.686,0.974,0.624,1.194,0.865,0.391,0.685,0.640,��쐼,6.3,��
2020/09/08,16:40,0.686,0.973,0.622,1.193,0.864,0.390,0.682,0.639,��,6.6,��
2020/09/08,16:50,0.685,0.973,0.623,1.195,0.865,0.391,0.684,0.640,��,6.6,��
2020/09/08,17:00,0.687,0.971,0.623,1.195,0.866,0.392,0.682,0.639,��,5.9,��
2020/09/08,17:10,0.686,0.973,0.622,1.196,0.865,0.390,0.682,0.640,��쐼,4.9,��
2020/09/08,17:20,0.688,0.971,0.623,1.193,0.866,0.391,0.685,0.642,��,4.4,��
2020/09/08,17:30,0.687,0.972,0.621,1.190,0.864,0.391,0.683,0.639,��,4.3,��
2020/09/08,17:40,0.685,0.974,0.623,1.194,0.864,0.391,0.684,0.639,��,4.3,��
2020/09/08,17:50,0.687,0.972,0.624,1.191,0.864,0.390,0.685,0.639,��,4.1,��
2020/09/08,18:00,0.687,0.974,0.622,1.193,0.866,0.392,0.683,0.640,��,4.4,��
2020/09/08,18:10,0.685,0.973,0.622,1.196,0.865,0.392,0.683,0.638,��,3.7,��
2020/09/08,18:20,0.687,0.974,0.623,1.191,0.865,0.392,0.684,0.639,��쐼,3.0,��
2020/09/08,18:30,0.687,0.970,0.624,1.192,0.866,0.393,0.683,0.640,��쐼,3.1,��
2020/09/08,18:40,0.687,0.973,0.623,1.193,0.866,0.392,0.684,0.640,��,3.2,��
2020/09/08,18:50,0.685,0.974,0.623,1.194,0.865,0.392,0.682,0.639,��,4.3,��
2020/09/08,19:00,0.688,0.973,0.623,1.192,0.866,0.392,0.682,0.639,��쐼,4.8,��
2020/09/08,19:10,0.686,0.974,0.623,1.192,0.867,0.392,0.684,0.639,��쐼,5.3,��
2020/09/08,19:20,0.688,0.975,0.624,1.193,0.866,0.393,0.683,0.638,��쐼,5.0,��
2020/09/08,19:30,0.687,0.973,0.623,1.195,0.865,0.390,0.683,0.639,��쐼,4.6,��
2020/09/08,19:40,0.690,0.975,0.624,1.193,0.867,0.392,0.683,0.640,�쐼,3.9,��
2020/09/08,19:50,0.687,0.974,0.622,1.194,0.866,0.391,0.684,0.640,�쐼,2.9,��
2020/09/08,20:00,0.688,0.976,0.623,1.192,0.866,0.392,0.683,0.639,��쐼,2.6,��
2020/09/08,20:10,0.688,0.974,0.624,1.193,0.866,0.392,0.684,0.640,��쐼,3.8,��
2020/09/08,20:20,0.687,0.975,0.624,1.192,0.866,0.393,0.684,0.639,��쐼,3.9,��
2020/09/08,20:30,0.687,0.974,0.622,1.194,0.864,0.391,0.684,0.639,��쐼,3.6,��
2020/09/08,20:40,0.687,0.977,0.623,1.193,0.865,0.393,0.684,0.641,��쐼,3.4,��
2020/09/08,20:50,0.688,0.974,0.625,1.193,0.866,0.391,0.686,0.639,��쐼,3.9,��
2020/09/08,21:00,0.687,0.974,0.623,1.192,0.867,0.392,0.685,0.640,�쐼,3.4,��
2020/09/08,21:10,0.687,0.974,0.625,1.193,0.866,0.392,0.684,0.640,���쐼,4.2,��
2020/09/08,21:20,0.687,0.973,0.624,1.196,0.865,0.392,0.685,0.640,�쐼,4.3,��
2020/09/08,21:30,0.687,0.974,0.626,1.195,0.865,0.395,0.683,0.640,�쐼,5.4,��
2020/09/08,21:40,0.686,0.972,0.626,1.194,0.867,0.392,0.684,0.640,��쐼,4.4,��
2020/09/08,21:50,0.685,0.974,0.626,1.195,0.866,0.393,0.684,0.640,�쐼,5.0,��
2020/09/08,22:00,0.688,0.975,0.625,1.193,0.864,0.391,0.682,0.640,�쐼,4.0,��
2020/09/08,22:10,0.687,0.973,0.626,1.194,0.866,0.393,0.684,0.639,���쐼,2.0,��
2020/09/08,22:20,0.688,0.975,0.624,1.195,0.866,0.393,0.684,0.639,��쐼,2.6,��
2020/09/08,22:30,0.687,0.976,0.624,1.194,0.865,0.391,0.685,0.642,�쐼,2.2,��
2020/09/08,22:40,0.689,0.974,0.625,1.195,0.868,0.394,0.686,0.641,�쐼,1.5,��
2020/09/08,22:50,0.687,0.975,0.625,1.195,0.865,0.395,0.686,0.640,�쐼,3.3,��
2020/09/08,23:00,0.687,0.974,0.624,1.192,0.866,0.391,0.684,0.641,�쐼,2.2,��
2020/09/08,23:10,0.687,0.974,0.623,1.195,0.866,0.393,0.684,0.640,�쐼,1.7,��
2020/09/08,23:20,0.687,0.973,0.624,1.195,0.865,0.392,0.684,0.639,�쐼,1.2,��
2020/09/08,23:30,0.687,0.974,0.623,1.196,0.867,0.394,0.684,0.639,���쐼,0.6,��
2020/09/08,23:40,0.687,0.975,0.623,1.195,0.867,0.394,0.683,0.642,��쐼,1.2,��
2020/09/08,23:50,0.686,0.977,0.625,1.194,0.867,0.391,0.684,0.640,���쐼,1.1,��
